Hlavní strana
METAR-TAF:

METAR-TAF

Letiště :

Curtis L. Brown Jr. Field

Elizabethtown, Severní Karolína, Spojené státy americké

zeměpisná šířka: 34-36N, zeměpisná délka: 078-35W, výška: 40 m

Aktuální stav počasí

Zpráva byla vytvořena před 25 minutami, v 09:55 UTC
Jihojihozápadní vítr 5 kt
Teplota 22°C
Vlhkost vzduchu 94%
Tlak 1017 hPa
Viditelnost: 16.1 km
Jasno

METAR: KEYF 190955Z AUTO 21005KT 10SM CLR 22/21 A3003 RMK AO2 T02200210

Čas: 06:20 (10:20 UTC)


TAF: chybějící

Stav a předpovědi počasí z více než 4 000 letišť (zprávy METAR a TAF).

Červené a žluté tečky na mapě představují dostupné meteorologické stanice.

Když kurzor umístíte na tečku, zobrazí se název stanice.

Pak kliknutím zobrazíte stav a předpověď počasí.

Chcete-li změnit mapu, kliknutím na zelené tlačítko se znaménkem +mapu přiblížíte, kliknutím na zelené tlačítko se znaménkem – mapu oddálíte a kliknutím na zelené šipky přejdete na sousední mapy.


METAR-TAF: